UAL1036 KORD-KRSW

Flight info

Callsign UAL1036
Flight time 2h 22m
Altitude 38000
Route CMSKY CARYN CYBIL PXV/N0456F370 HITMN Q19 BULZI Q81 NICKI/N0457F380 PLYER TYNEE4
Aircraft A319/M-SDE3FGHIRWY/LB1

Departure

Time 2026-05-08 02:31
Airport Chicago O'Hare International Airport (KORD)

Arrival

Time 2026-05-08 04:53
Airport Southwest Florida International Airport (KRSW)
Time Latitude Longitude Altitude Speed Heading
2026-05-08 01:51 41.98122 -87.90929 667 ft 0 kts 230°
2026-05-08 02:18 41.98127 -87.90921 669 ft 4 kts 230°
2026-05-08 02:18 41.98144 -87.90893 667 ft 4 kts 231°
2026-05-08 02:18 41.98158 -87.90870 667 ft 4 kts 220°
2026-05-08 02:19 41.98181 -87.90855 667 ft 4 kts 176°
2026-05-08 02:19 41.98204 -87.90863 667 ft 0 kts 146°
2026-05-08 02:21 41.98192 -87.90853 668 ft 4 kts 150°
2026-05-08 02:21 41.98146 -87.90840 669 ft 8 kts 171°
2026-05-08 02:21 41.98089 -87.90844 669 ft 9 kts 189°
2026-05-08 02:21 41.98026 -87.90859 669 ft 10 kts 190°
2026-05-08 02:22 41.97956 -87.90876 669 ft 11 kts 190°
2026-05-08 02:22 41.97879 -87.90895 669 ft 12 kts 190°
2026-05-08 02:22 41.97792 -87.90913 666 ft 13 kts 189°
2026-05-08 02:22 41.97688 -87.90936 669 ft 15 kts 191°
2026-05-08 02:23 41.97596 -87.90983 669 ft 13 kts 240°
2026-05-08 02:23 41.97552 -87.91090 669 ft 13 kts 211°
2026-05-08 02:23 41.97478 -87.91048 669 ft 12 kts 142°
2026-05-08 02:23 41.97416 -87.90981 669 ft 11 kts 140°
2026-05-08 02:24 41.97356 -87.90906 669 ft 13 kts 136°
2026-05-08 02:24 41.97293 -87.90825 669 ft 12 kts 131°
2026-05-08 02:24 41.97240 -87.90738 669 ft 12 kts 125°
2026-05-08 02:24 41.97219 -87.90638 669 ft 11 kts 98°
2026-05-08 02:25 41.97212 -87.90538 669 ft 10 kts 95°
2026-05-08 02:25 41.97207 -87.90443 669 ft 11 kts 90°
2026-05-08 02:25 41.97206 -87.90341 669 ft 11 kts 91°
2026-05-08 02:25 41.97205 -87.90234 669 ft 12 kts 90°
2026-05-08 02:26 41.97183 -87.90135 669 ft 11 kts 166°
2026-05-08 02:26 41.97106 -87.90133 669 ft 11 kts 179°
2026-05-08 02:26 41.97044 -87.90165 669 ft 10 kts 245°
2026-05-08 02:26 41.97042 -87.90259 669 ft 11 kts 270°
2026-05-08 02:27 41.97042 -87.90376 668 ft 13 kts 270°
2026-05-08 02:27 41.97041 -87.90512 668 ft 16 kts 269°
2026-05-08 02:27 41.97041 -87.90685 668 ft 21 kts 270°
2026-05-08 02:27 41.97040 -87.90887 668 ft 22 kts 270°
2026-05-08 02:28 41.97041 -87.91088 669 ft 21 kts 270°
2026-05-08 02:28 41.97040 -87.91285 669 ft 21 kts 270°
2026-05-08 02:28 41.97040 -87.91473 670 ft 20 kts 268°
2026-05-08 02:28 41.97040 -87.91658 670 ft 20 kts 271°
2026-05-08 02:29 41.97039 -87.91839 669 ft 19 kts 269°
2026-05-08 02:29 41.97038 -87.92014 669 ft 20 kts 269°
2026-05-08 02:29 41.96939 -87.92082 669 ft 15 kts 179°
2026-05-08 02:29 41.96901 -87.92035 669 ft 7 kts 89°
2026-05-08 02:30 41.96901 -87.91826 670 ft 48 kts 90°
2026-05-08 02:30 41.96903 -87.91114 670 ft 103 kts 90°
2026-05-08 02:30 41.96904 -87.89928 671 ft 153 kts 90°
2026-05-08 02:30 41.96903 -87.88346 964 ft 172 kts 91°
2026-05-08 02:31 41.96897 -87.86747 1685 ft 171 kts 91°
2026-05-08 02:31 41.96896 -87.85128 2270 ft 176 kts 90°
2026-05-08 02:31 41.96916 -87.83467 2847 ft 180 kts 88°
2026-05-08 02:31 41.96930 -87.81768 3414 ft 185 kts 89°
2026-05-08 02:32 41.96886 -87.80010 3849 ft 196 kts 100°
2026-05-08 02:32 41.96338 -87.78304 4238 ft 206 kts 133°
2026-05-08 02:32 41.95137 -87.77211 4587 ft 215 kts 168°
2026-05-08 02:32 41.93602 -87.77000 4973 ft 231 kts 185°
2026-05-08 02:33 41.91945 -87.77036 5486 ft 251 kts 187°
2026-05-08 02:33 41.90141 -87.77253 6093 ft 268 kts 192°
2026-05-08 02:33 41.88273 -87.77645 6897 ft 275 kts 195°
2026-05-08 02:33 41.86381 -87.78114 7823 ft 278 kts 196°
2026-05-08 02:34 41.84475 -87.78575 8778 ft 281 kts 197°
2026-05-08 02:34 41.82529 -87.79018 9670 ft 286 kts 196°
2026-05-08 02:34 41.80549 -87.79437 10424 ft 294 kts 196°
2026-05-08 02:34 41.78452 -87.79872 10721 ft 316 kts 195°
2026-05-08 02:35 41.76208 -87.80334 11075 ft 335 kts 195°
2026-05-08 02:35 41.73876 -87.80825 11329 ft 354 kts 195°
2026-05-08 02:35 41.71395 -87.81370 11705 ft 366 kts 195°
2026-05-08 02:35 41.68886 -87.81918 12550 ft 365 kts 195°
2026-05-08 02:36 41.66377 -87.82445 13349 ft 367 kts 195°
2026-05-08 02:36 41.63850 -87.82973 14082 ft 368 kts 195°
2026-05-08 02:36 41.61315 -87.83502 14765 ft 370 kts 195°
2026-05-08 02:36 41.58747 -87.84040 15353 ft 376 kts 196°
2026-05-08 02:37 41.57031 -87.84401 15722 ft 380 kts 196°
2026-05-08 02:37 41.54401 -87.84959 16299 ft 385 kts 196°
2026-05-08 02:37 41.51744 -87.85524 16903 ft 389 kts 196°
2026-05-08 02:37 41.48175 -87.86287 17699 ft 396 kts 197°
2026-05-08 02:38 41.45432 -87.86858 18233 ft 402 kts 196°
2026-05-08 02:38 41.42648 -87.87430 18733 ft 407 kts 197°
2026-05-08 02:38 41.39821 -87.87962 19246 ft 414 kts 195°
2026-05-08 02:38 41.37915 -87.88230 19582 ft 418 kts 193°
2026-05-08 02:39 41.34987 -87.88531 20092 ft 424 kts 192°
2026-05-08 02:39 41.32024 -87.88757 20593 ft 429 kts 191°
2026-05-08 02:39 41.29026 -87.88957 21079 ft 433 kts 191°
2026-05-08 02:39 41.26005 -87.89170 21553 ft 437 kts 192°
2026-05-08 02:40 41.22930 -87.89174 22002 ft 446 kts 187°
2026-05-08 02:40 41.19823 -87.89067 22458 ft 449 kts 187°
2026-05-08 02:40 41.16689 -87.88975 22913 ft 452 kts 187°
2026-05-08 02:40 41.13539 -87.88888 23352 ft 455 kts 187°
2026-05-08 02:41 41.10410 -87.88802 23737 ft 458 kts 187°
2026-05-08 02:41 41.07215 -87.88710 24118 ft 460 kts 187°
2026-05-08 02:41 41.04019 -87.88616 24522 ft 461 kts 187°
2026-05-08 02:41 41.00803 -87.88519 24929 ft 462 kts 187°
2026-05-08 02:42 40.97579 -87.88419 25334 ft 464 kts 187°
2026-05-08 02:42 40.94353 -87.88321 25730 ft 465 kts 187°
2026-05-08 02:42 40.91116 -87.88220 26130 ft 466 kts 187°
2026-05-08 02:42 40.87868 -87.88118 26513 ft 468 kts 187°
2026-05-08 02:43 40.84650 -87.88020 26882 ft 469 kts 187°
2026-05-08 02:43 40.81385 -87.87920 27251 ft 470 kts 187°
2026-05-08 02:43 40.78110 -87.87821 27613 ft 471 kts 187°
2026-05-08 02:43 40.74829 -87.87723 27969 ft 473 kts 187°
2026-05-08 02:44 40.71537 -87.87626 28313 ft 474 kts 188°
2026-05-08 02:44 40.68233 -87.87529 28658 ft 475 kts 187°
2026-05-08 02:44 40.64928 -87.87431 28994 ft 476 kts 187°
2026-05-08 02:44 40.61614 -87.87330 29442 ft 475 kts 188°
2026-05-08 02:45 40.58323 -87.87228 29947 ft 473 kts 188°
2026-05-08 02:45 40.55035 -87.87127 30384 ft 471 kts 188°
2026-05-08 02:45 40.51768 -87.87027 30780 ft 469 kts 188°
2026-05-08 02:45 40.48555 -87.86931 31170 ft 468 kts 188°
2026-05-08 02:46 40.45305 -87.86836 31563 ft 467 kts 188°
2026-05-08 02:46 40.42060 -87.86743 31957 ft 466 kts 188°
2026-05-08 02:46 40.38820 -87.86651 32361 ft 465 kts 188°
2026-05-08 02:46 40.35595 -87.86559 32766 ft 463 kts 188°
2026-05-08 02:47 40.32372 -87.86469 33177 ft 462 kts 188°
2026-05-08 02:47 40.29165 -87.86367 33588 ft 461 kts 188°
2026-05-08 02:47 40.25956 -87.86232 34024 ft 460 kts 187°
2026-05-08 02:47 40.22804 -87.86081 34376 ft 459 kts 188°
2026-05-08 02:48 40.19620 -87.85921 34722 ft 458 kts 188°
2026-05-08 02:48 40.16443 -87.85766 35063 ft 457 kts 188°
2026-05-08 02:48 40.13272 -87.85621 35398 ft 455 kts 188°
2026-05-08 02:48 40.10104 -87.85482 35719 ft 454 kts 189°
2026-05-08 02:49 40.06949 -87.85346 36034 ft 453 kts 189°
2026-05-08 02:49 40.03800 -87.85209 36340 ft 453 kts 189°
2026-05-08 02:49 40.00653 -87.85072 36639 ft 452 kts 189°
2026-05-08 02:49 39.97553 -87.84935 36924 ft 451 kts 190°
2026-05-08 02:50 39.94415 -87.84796 37215 ft 451 kts 190°
2026-05-08 02:50 39.91289 -87.84660 37492 ft 450 kts 190°
2026-05-08 02:50 39.88161 -87.84525 37756 ft 449 kts 191°
2026-05-08 02:50 39.85036 -87.84389 37970 ft 449 kts 191°
2026-05-08 02:51 39.78801 -87.84117 38025 ft 448 kts 191°
2026-05-08 02:51 39.72583 -87.83840 38025 ft 446 kts 191°
2026-05-08 02:52 39.66430 -87.83574 38033 ft 445 kts 191°
2026-05-08 02:52 39.60242 -87.83311 38029 ft 444 kts 191°
2026-05-08 02:53 39.54070 -87.83043 38020 ft 444 kts 192°
2026-05-08 02:53 39.47901 -87.82778 38019 ft 443 kts 192°
2026-05-08 02:54 39.41783 -87.82516 38021 ft 443 kts 192°
2026-05-08 02:54 39.35628 -87.82246 38022 ft 442 kts 192°
2026-05-08 02:55 39.26418 -87.81860 38025 ft 441 kts 192°
2026-05-08 02:56 39.20279 -87.81597 38028 ft 441 kts 193°
2026-05-08 02:56 39.14192 -87.81336 38028 ft 441 kts 193°
2026-05-08 02:57 39.08065 -87.81069 38029 ft 440 kts 193°
2026-05-08 02:57 39.01941 -87.80804 38028 ft 440 kts 193°
2026-05-08 02:58 38.95826 -87.80541 38026 ft 440 kts 193°
2026-05-08 02:58 38.89706 -87.80285 38026 ft 440 kts 193°
2026-05-08 02:59 38.83637 -87.80032 38059 ft 439 kts 193°
2026-05-08 02:59 38.77520 -87.79770 38058 ft 439 kts 193°
2026-05-08 03:00 38.71412 -87.79511 38059 ft 439 kts 193°
2026-05-08 03:00 38.65299 -87.79259 38047 ft 439 kts 193°
2026-05-08 03:01 38.59229 -87.79010 38046 ft 439 kts 193°
2026-05-08 03:01 38.53116 -87.78752 38048 ft 440 kts 193°
2026-05-08 03:02 38.47005 -87.78489 38046 ft 439 kts 193°
2026-05-08 03:02 38.40898 -87.78225 38045 ft 439 kts 194°
2026-05-08 03:03 38.34831 -87.77970 38046 ft 439 kts 194°
2026-05-08 03:03 38.28727 -87.77720 38047 ft 439 kts 194°
2026-05-08 03:04 38.22628 -87.77472 38061 ft 438 kts 194°
2026-05-08 03:04 38.16537 -87.77215 38064 ft 438 kts 194°
2026-05-08 03:05 38.10448 -87.76956 38067 ft 438 kts 194°
2026-05-08 03:05 38.04405 -87.76701 38073 ft 437 kts 194°
2026-05-08 03:06 37.98336 -87.76454 38080 ft 436 kts 195°
2026-05-08 03:06 37.95282 -87.76248 38077 ft 447 kts 189°
2026-05-08 03:06 37.92163 -87.75470 38079 ft 468 kts 179°
2026-05-08 03:06 37.89046 -87.73964 38080 ft 491 kts 169°
2026-05-08 03:07 37.85973 -87.72057 38075 ft 492 kts 169°
2026-05-08 03:07 37.79829 -87.68231 38067 ft 492 kts 169°
2026-05-08 03:08 37.73718 -87.64458 38065 ft 492 kts 169°
2026-05-08 03:08 37.67563 -87.60678 38061 ft 492 kts 170°
2026-05-08 03:09 37.61400 -87.56905 38060 ft 492 kts 170°
2026-05-08 03:09 37.55238 -87.53148 38052 ft 492 kts 170°
2026-05-08 03:10 37.49113 -87.49409 38054 ft 493 kts 170°
2026-05-08 03:10 37.42942 -87.45645 38054 ft 493 kts 170°
2026-05-08 03:11 37.36773 -87.41890 38054 ft 493 kts 171°
2026-05-08 03:11 37.30598 -87.38146 38056 ft 493 kts 171°
2026-05-08 03:12 37.24420 -87.34403 38051 ft 493 kts 171°
2026-05-08 03:12 37.18284 -87.30696 38052 ft 493 kts 171°
2026-05-08 03:13 37.12098 -87.26970 38056 ft 493 kts 171°
2026-05-08 03:13 37.05911 -87.23246 38057 ft 493 kts 171°
2026-05-08 03:14 36.99720 -87.19522 38052 ft 494 kts 171°
2026-05-08 03:14 36.93529 -87.15808 38051 ft 494 kts 171°
2026-05-08 03:15 36.87337 -87.12105 38044 ft 494 kts 171°
2026-05-08 03:15 36.81184 -87.08428 38053 ft 494 kts 171°
2026-05-08 03:16 36.74990 -87.04719 38058 ft 493 kts 171°
2026-05-08 03:16 36.68796 -87.01027 38066 ft 493 kts 171°
2026-05-08 03:17 36.62609 -86.97341 38062 ft 493 kts 171°
2026-05-08 03:17 36.56467 -86.93689 38065 ft 492 kts 171°
2026-05-08 03:18 36.50284 -86.90028 38066 ft 492 kts 171°
2026-05-08 03:18 36.44105 -86.86379 38068 ft 491 kts 171°
2026-05-08 03:19 36.37939 -86.82743 38066 ft 491 kts 171°
2026-05-08 03:19 36.31769 -86.79106 38065 ft 491 kts 171°
2026-05-08 03:20 36.25644 -86.75490 38062 ft 490 kts 171°
2026-05-08 03:20 36.19490 -86.71870 38089 ft 490 kts 172°
2026-05-08 03:21 36.13322 -86.68321 38092 ft 481 kts 176°
2026-05-08 03:21 36.07104 -86.65503 38093 ft 475 kts 178°
2026-05-08 03:22 36.00894 -86.62707 38084 ft 475 kts 177°
2026-05-08 03:22 35.94720 -86.59919 38080 ft 475 kts 177°
2026-05-08 03:23 35.88525 -86.57135 38079 ft 475 kts 177°
2026-05-08 03:23 35.82292 -86.54343 38055 ft 475 kts 177°
2026-05-08 03:24 35.76084 -86.51562 38057 ft 475 kts 177°
2026-05-08 03:24 35.69876 -86.48784 38052 ft 475 kts 177°
2026-05-08 03:25 35.63710 -86.46033 38063 ft 474 kts 177°
2026-05-08 03:25 35.57504 -86.43269 38063 ft 474 kts 177°
2026-05-08 03:26 35.51305 -86.40508 38057 ft 474 kts 177°
2026-05-08 03:26 35.45104 -86.37739 38058 ft 474 kts 177°
2026-05-08 03:27 35.38948 -86.35008 38057 ft 474 kts 177°
2026-05-08 03:27 35.32751 -86.32274 38055 ft 474 kts 177°
2026-05-08 03:28 35.26548 -86.29532 38055 ft 474 kts 176°
2026-05-08 03:28 35.20348 -86.26793 38059 ft 474 kts 176°
2026-05-08 03:29 35.14187 -86.24078 38061 ft 474 kts 176°
2026-05-08 03:29 35.07979 -86.21349 38058 ft 474 kts 176°
2026-05-08 03:30 34.98658 -86.17253 38049 ft 475 kts 176°
2026-05-08 03:31 34.86243 -86.11812 38028 ft 477 kts 176°
2026-05-08 03:32 34.76867 -86.07720 38022 ft 478 kts 176°
2026-05-08 03:32 34.70603 -86.04991 38034 ft 478 kts 175°
2026-05-08 03:33 34.64333 -86.02254 38021 ft 480 kts 175°
2026-05-08 03:33 34.58106 -85.99428 38024 ft 482 kts 174°
2026-05-08 03:34 34.51836 -85.96514 38020 ft 482 kts 174°
2026-05-08 03:34 34.45563 -85.93625 38020 ft 482 kts 174°
2026-05-08 03:35 34.39282 -85.90759 38021 ft 482 kts 174°
2026-05-08 03:35 34.33044 -85.87925 38024 ft 482 kts 174°
2026-05-08 03:36 34.26771 -85.85079 38025 ft 481 kts 174°
2026-05-08 03:36 34.20503 -85.82234 38028 ft 481 kts 174°
2026-05-08 03:37 34.14241 -85.79393 38027 ft 480 kts 174°
2026-05-08 03:37 34.08031 -85.76578 38035 ft 480 kts 174°
2026-05-08 03:38 34.01790 -85.73759 38038 ft 479 kts 174°
2026-05-08 03:38 33.95551 -85.70951 38041 ft 478 kts 174°
2026-05-08 03:39 33.89329 -85.68154 38047 ft 477 kts 174°
2026-05-08 03:39 33.83112 -85.65356 38048 ft 476 kts 174°
2026-05-08 03:40 33.76944 -85.62590 38051 ft 476 kts 174°
2026-05-08 03:40 33.70741 -85.59817 38051 ft 475 kts 174°
2026-05-08 03:41 33.64542 -85.57048 38045 ft 475 kts 174°
2026-05-08 03:41 33.58349 -85.54278 38036 ft 475 kts 174°
2026-05-08 03:42 33.52148 -85.51543 38043 ft 474 kts 174°
2026-05-08 03:42 33.45989 -85.48863 38038 ft 474 kts 174°
2026-05-08 03:43 33.39785 -85.46173 38030 ft 475 kts 174°
2026-05-08 03:43 33.33575 -85.43463 38023 ft 475 kts 174°
2026-05-08 03:44 33.27362 -85.40755 38021 ft 475 kts 174°
2026-05-08 03:44 33.21188 -85.38068 38015 ft 476 kts 174°
2026-05-08 03:45 33.14965 -85.35361 38020 ft 476 kts 174°
2026-05-08 03:45 33.08737 -85.32664 38024 ft 476 kts 174°
2026-05-08 03:46 33.02504 -85.29974 38028 ft 477 kts 174°
2026-05-08 03:46 32.96310 -85.27298 38033 ft 477 kts 174°
2026-05-08 03:47 32.90070 -85.24598 38032 ft 477 kts 174°
2026-05-08 03:47 32.83829 -85.21902 38027 ft 477 kts 174°
2026-05-08 03:48 32.77584 -85.19218 38027 ft 477 kts 174°
2026-05-08 03:48 32.71381 -85.16558 38032 ft 477 kts 174°
2026-05-08 03:49 32.65130 -85.13884 38011 ft 477 kts 174°
2026-05-08 03:49 32.58881 -85.11209 38005 ft 477 kts 173°
2026-05-08 03:50 32.52629 -85.08537 38005 ft 477 kts 173°
2026-05-08 03:50 32.46382 -85.05872 38009 ft 477 kts 173°
2026-05-08 03:51 32.40178 -85.03227 37983 ft 477 kts 173°
2026-05-08 03:51 32.33929 -85.00568 37985 ft 477 kts 173°
2026-05-08 03:52 32.27678 -84.97919 37990 ft 477 kts 173°
2026-05-08 03:52 32.21427 -84.95260 37993 ft 477 kts 173°
2026-05-08 03:53 32.15222 -84.92621 37994 ft 477 kts 173°
2026-05-08 03:53 32.08970 -84.89979 38009 ft 477 kts 173°
2026-05-08 03:54 32.02713 -84.87342 38010 ft 478 kts 173°
2026-05-08 03:54 31.96457 -84.84690 38008 ft 478 kts 173°
2026-05-08 03:55 31.90245 -84.82062 38009 ft 477 kts 173°
2026-05-08 03:55 31.83985 -84.79515 38001 ft 473 kts 175°
2026-05-08 03:56 31.77695 -84.77406 38001 ft 468 kts 178°
2026-05-08 03:56 31.71405 -84.75458 38002 ft 468 kts 177°
2026-05-08 03:57 31.65111 -84.73430 38001 ft 469 kts 176°
2026-05-08 03:57 31.58827 -84.71321 38004 ft 470 kts 176°
2026-05-08 03:58 31.52591 -84.69220 38004 ft 470 kts 176°
2026-05-08 03:58 31.46305 -84.67132 38006 ft 469 kts 176°
2026-05-08 03:59 31.40019 -84.65059 38005 ft 469 kts 176°
2026-05-08 03:59 31.33726 -84.62970 38001 ft 472 kts 174°
2026-05-08 03:59 31.30668 -84.61570 37995 ft 486 kts 165°
2026-05-08 04:00 31.27633 -84.59801 37996 ft 488 kts 164°
2026-05-08 04:00 31.21557 -84.56236 37988 ft 489 kts 164°
2026-05-08 04:01 31.15478 -84.52688 37989 ft 489 kts 164°
2026-05-08 04:01 31.09386 -84.49156 38002 ft 489 kts 164°
2026-05-08 04:02 31.03292 -84.45618 38006 ft 489 kts 164°
2026-05-08 04:02 30.97238 -84.42100 38002 ft 489 kts 164°
2026-05-08 04:03 30.91146 -84.38570 38002 ft 489 kts 164°
2026-05-08 04:03 30.82014 -84.33289 38000 ft 489 kts 164°
2026-05-08 04:04 30.75970 -84.29797 37993 ft 488 kts 163°
2026-05-08 04:04 30.69884 -84.26285 38000 ft 488 kts 163°
2026-05-08 04:05 30.63791 -84.22778 38007 ft 488 kts 163°
2026-05-08 04:05 30.57705 -84.19281 38012 ft 488 kts 163°
2026-05-08 04:06 30.51661 -84.15817 38010 ft 488 kts 163°
2026-05-08 04:06 30.45581 -84.12329 38009 ft 488 kts 163°
2026-05-08 04:07 30.39500 -84.08844 38008 ft 487 kts 163°
2026-05-08 04:07 30.33455 -84.05224 38008 ft 491 kts 160°
2026-05-08 04:08 30.27569 -84.01272 38007 ft 493 kts 158°
2026-05-08 04:08 30.21674 -83.97213 38014 ft 493 kts 158°
2026-05-08 04:09 30.15749 -83.93239 38019 ft 492 kts 159°
2026-05-08 04:09 30.09799 -83.89335 38025 ft 492 kts 159°
2026-05-08 04:10 30.03853 -83.85422 38020 ft 492 kts 159°
2026-05-08 04:10 29.97956 -83.81531 38023 ft 492 kts 159°
2026-05-08 04:11 29.92013 -83.77616 38026 ft 492 kts 159°
2026-05-08 04:11 29.86067 -83.73706 38026 ft 492 kts 159°
2026-05-08 04:12 29.80117 -83.69806 38020 ft 492 kts 159°
2026-05-08 04:12 29.74207 -83.65929 38026 ft 492 kts 159°
2026-05-08 04:13 29.68264 -83.62032 38041 ft 491 kts 159°
2026-05-08 04:13 29.62328 -83.58147 38040 ft 491 kts 159°
2026-05-08 04:14 29.56393 -83.54275 38040 ft 490 kts 158°
2026-05-08 04:14 29.50503 -83.50435 38047 ft 489 kts 158°
2026-05-08 04:15 29.44592 -83.46588 38044 ft 489 kts 158°
2026-05-08 04:15 29.38679 -83.42749 38046 ft 488 kts 158°
2026-05-08 04:16 29.32774 -83.38900 38044 ft 488 kts 158°
2026-05-08 04:16 29.26754 -83.35500 38040 ft 474 kts 170°
2026-05-08 04:17 29.20478 -83.34123 38041 ft 453 kts 186°
2026-05-08 04:17 29.13943 -83.33982 38034 ft 451 kts 188°
2026-05-08 04:18 29.07663 -83.33848 38027 ft 452 kts 187°
2026-05-08 04:18 29.01373 -83.33712 38032 ft 452 kts 187°
2026-05-08 04:19 28.95110 -83.33390 38019 ft 461 kts 179°
2026-05-08 04:19 28.88832 -83.31411 38024 ft 472 kts 169°
2026-05-08 04:20 28.82583 -83.29113 38022 ft 472 kts 170°
2026-05-08 04:20 28.76323 -83.26830 38030 ft 473 kts 170°
2026-05-08 04:21 28.70099 -83.24562 38031 ft 473 kts 169°
2026-05-08 04:21 28.63827 -83.22275 38033 ft 473 kts 169°
2026-05-08 04:22 28.57550 -83.19995 38032 ft 474 kts 169°
2026-05-08 04:22 28.51273 -83.17716 38033 ft 474 kts 169°
2026-05-08 04:23 28.44990 -83.15421 38034 ft 474 kts 169°
2026-05-08 04:23 28.38755 -83.13127 38034 ft 475 kts 169°
2026-05-08 04:24 28.32464 -83.10830 38034 ft 475 kts 169°
2026-05-08 04:24 28.26175 -83.08547 38037 ft 475 kts 169°
2026-05-08 04:25 28.20947 -83.06647 38038 ft 475 kts 169°
2026-05-08 04:25 28.13635 -83.03978 38040 ft 475 kts 169°
2026-05-08 04:26 28.07342 -83.01681 38045 ft 476 kts 168°
2026-05-08 04:26 28.01116 -82.99044 38042 ft 479 kts 164°
2026-05-08 04:27 27.95999 -82.96625 38046 ft 480 kts 163°
2026-05-08 04:27 27.88840 -82.93260 38048 ft 479 kts 164°
2026-05-08 04:28 27.82660 -82.90471 38053 ft 478 kts 164°
2026-05-08 04:28 27.77516 -82.88183 38061 ft 478 kts 164°
2026-05-08 04:29 27.71338 -82.85431 38052 ft 477 kts 164°
2026-05-08 04:29 27.65164 -82.82668 38052 ft 477 kts 164°
2026-05-08 04:30 27.58991 -82.79896 38047 ft 477 kts 164°
2026-05-08 04:30 27.55908 -82.78515 37868 ft 477 kts 164°
2026-05-08 04:30 27.52821 -82.77135 37610 ft 477 kts 164°
2026-05-08 04:31 27.49773 -82.75773 37354 ft 477 kts 164°
2026-05-08 04:31 27.46688 -82.74396 37098 ft 478 kts 164°
2026-05-08 04:31 27.43596 -82.73017 36845 ft 478 kts 164°
2026-05-08 04:31 27.40504 -82.71636 36595 ft 479 kts 163°
2026-05-08 04:32 27.37410 -82.70253 36189 ft 479 kts 163°
2026-05-08 04:32 27.34287 -82.68863 35351 ft 486 kts 163°
2026-05-08 04:32 27.31126 -82.67460 34498 ft 491 kts 163°
2026-05-08 04:32 27.27993 -82.65971 33520 ft 501 kts 158°
2026-05-08 04:33 27.24974 -82.63942 32544 ft 511 kts 149°
2026-05-08 04:33 27.22047 -82.61643 31500 ft 516 kts 149°
2026-05-08 04:33 27.19095 -82.59331 30565 ft 517 kts 149°
2026-05-08 04:33 27.16120 -82.57013 29372 ft 520 kts 149°
2026-05-08 04:34 27.13164 -82.54720 27861 ft 517 kts 149°
2026-05-08 04:34 27.10218 -82.52438 26517 ft 511 kts 149°
2026-05-08 04:34 27.07317 -82.50190 25505 ft 500 kts 149°
2026-05-08 04:34 27.04511 -82.48011 24749 ft 484 kts 149°
2026-05-08 04:35 27.01806 -82.45908 23945 ft 477 kts 149°
2026-05-08 04:35 26.99089 -82.43778 23059 ft 477 kts 148°
2026-05-08 04:35 26.96394 -82.41640 22278 ft 472 kts 148°
2026-05-08 04:35 26.93730 -82.39514 21488 ft 467 kts 147°
2026-05-08 04:36 26.91098 -82.37414 20708 ft 463 kts 147°
2026-05-08 04:36 26.88488 -82.35334 19940 ft 458 kts 147°
2026-05-08 04:36 26.85904 -82.33281 19187 ft 453 kts 147°
2026-05-08 04:36 26.83351 -82.31257 18470 ft 448 kts 147°
2026-05-08 04:37 26.80817 -82.29252 17686 ft 443 kts 146°
2026-05-08 04:37 26.78321 -82.27278 17009 ft 436 kts 146°
2026-05-08 04:37 26.75897 -82.25361 16386 ft 429 kts 146°
2026-05-08 04:37 26.73475 -82.23444 15750 ft 424 kts 146°
2026-05-08 04:38 26.71082 -82.21552 15119 ft 418 kts 146°
2026-05-08 04:38 26.68720 -82.19690 14470 ft 414 kts 145°
2026-05-08 04:38 26.66381 -82.17847 13811 ft 409 kts 145°
2026-05-08 04:38 26.64071 -82.16026 13103 ft 404 kts 145°
2026-05-08 04:39 26.61795 -82.14231 12419 ft 398 kts 145°
2026-05-08 04:39 26.59552 -82.12462 11731 ft 392 kts 145°
2026-05-08 04:39 26.57368 -82.10743 11076 ft 386 kts 145°
2026-05-08 04:39 26.55222 -82.09058 10876 ft 365 kts 145°
2026-05-08 04:40 26.53229 -82.07492 10757 ft 336 kts 144°
2026-05-08 04:40 26.51388 -82.06046 10637 ft 312 kts 144°
2026-05-08 04:40 26.49661 -82.04690 10339 ft 298 kts 144°
2026-05-08 04:40 26.48003 -82.03388 10107 ft 284 kts 144°
2026-05-08 04:41 26.46426 -82.02149 9905 ft 269 kts 144°
2026-05-08 04:41 26.44933 -82.00957 9781 ft 260 kts 141°
2026-05-08 04:41 26.43656 -81.99586 9667 ft 258 kts 130°
2026-05-08 04:41 26.42596 -81.97979 9552 ft 257 kts 124°
2026-05-08 04:42 26.41574 -81.96344 9425 ft 256 kts 124°
2026-05-08 04:42 26.40550 -81.94712 9102 ft 257 kts 124°
2026-05-08 04:42 26.39698 -81.92961 8679 ft 258 kts 110°
2026-05-08 04:42 26.39281 -81.91024 8258 ft 258 kts 96°
2026-05-08 04:43 26.39311 -81.89033 7819 ft 255 kts 82°
2026-05-08 04:43 26.39573 -81.87100 7410 ft 249 kts 82°
2026-05-08 04:43 26.39817 -81.85242 7016 ft 243 kts 82°
2026-05-08 04:43 26.40058 -81.83378 6612 ft 237 kts 82°
2026-05-08 04:44 26.40286 -81.81607 6215 ft 231 kts 82°
2026-05-08 04:44 26.40691 -81.79904 5825 ft 225 kts 69°
2026-05-08 04:44 26.41406 -81.78383 5458 ft 219 kts 56°
2026-05-08 04:44 26.42291 -81.77029 5109 ft 213 kts 55°
2026-05-08 04:45 26.43153 -81.75711 4762 ft 208 kts 55°
2026-05-08 04:45 26.43989 -81.74429 4467 ft 199 kts 55°
2026-05-08 04:45 26.44789 -81.73202 4372 ft 195 kts 55°
2026-05-08 04:45 26.45572 -81.71996 4303 ft 194 kts 55°
2026-05-08 04:46 26.46363 -81.70779 4220 ft 194 kts 55°
2026-05-08 04:46 26.47156 -81.69561 4143 ft 194 kts 55°
2026-05-08 04:46 26.47949 -81.68346 4063 ft 194 kts 55°
2026-05-08 04:46 26.48740 -81.67131 3997 ft 194 kts 55°
2026-05-08 04:47 26.49533 -81.65914 3776 ft 193 kts 55°
2026-05-08 04:47 26.50322 -81.64708 3598 ft 192 kts 55°
2026-05-08 04:47 26.51112 -81.63502 3422 ft 192 kts 55°
2026-05-08 04:47 26.51891 -81.62312 3253 ft 192 kts 55°
2026-05-08 04:48 26.52743 -81.61163 3075 ft 193 kts 44°
2026-05-08 04:48 26.53869 -81.60340 2902 ft 195 kts 25°
2026-05-08 04:48 26.55175 -81.59956 2730 ft 196 kts
2026-05-08 04:48 26.56530 -81.60062 2554 ft 196 kts 347°
2026-05-08 04:49 26.57778 -81.60652 2380 ft 196 kts 328°
2026-05-08 04:49 26.58792 -81.61647 2212 ft 194 kts 309°
2026-05-08 04:49 26.59448 -81.62890 2035 ft 177 kts 290°
2026-05-08 04:49 26.59716 -81.64124 1891 ft 152 kts 275°
2026-05-08 04:50 26.59695 -81.65238 1759 ft 141 kts 260°
2026-05-08 04:50 26.59450 -81.66277 1640 ft 136 kts 246°
2026-05-08 04:50 26.59018 -81.67203 1522 ft 133 kts 234°
2026-05-08 04:50 26.58477 -81.68040 1366 ft 133 kts 232°
2026-05-08 04:51 26.57938 -81.68871 1194 ft 132 kts 232°
2026-05-08 04:51 26.57401 -81.69695 1015 ft 131 kts 232°
2026-05-08 04:51 26.56867 -81.70515 854 ft 131 kts 232°
2026-05-08 04:51 26.56336 -81.71336 683 ft 130 kts 233°
2026-05-08 04:52 26.55811 -81.72140 509 ft 130 kts 234°
2026-05-08 04:52 26.55275 -81.72951 307 ft 130 kts 233°
2026-05-08 04:52 26.54746 -81.73769 144 ft 130 kts 233°
2026-05-08 04:52 26.54230 -81.74567 45 ft 117 kts 234°
2026-05-08 04:53 26.53843 -81.75167 44 ft 71 kts 233°
2026-05-08 04:53 26.53648 -81.75463 43 ft 33 kts 236°
2026-05-08 04:53 26.53525 -81.75656 44 ft 22 kts 232°
2026-05-08 04:53 26.53450 -81.75734 44 ft 5 kts 209°
2026-05-08 04:54 26.53400 -81.75744 45 ft 9 kts 169°
2026-05-08 04:54 26.53376 -81.75681 45 ft 11 kts 66°
2026-05-08 04:54 26.53416 -81.75617 45 ft 11 kts 54°
2026-05-08 04:54 26.53459 -81.75550 45 ft 10 kts 54°
2026-05-08 04:55 26.53447 -81.75482 45 ft 4 kts 137°
2026-05-08 04:55 26.53415 -81.75454 44 ft 7 kts 143°
2026-05-08 04:55 26.53365 -81.75414 44 ft 10 kts 144°
2026-05-08 04:55 26.53299 -81.75361 44 ft 13 kts 144°
2026-05-08 04:56 26.53223 -81.75322 44 ft 9 kts 183°
2026-05-08 04:56 26.53169 -81.75333 44 ft 9 kts 188°
2026-05-08 04:56 26.53100 -81.75344 44 ft 11 kts 188°
2026-05-08 04:56 26.53036 -81.75356 44 ft 7 kts 189°
2026-05-08 04:57 26.53017 -81.75360 44 ft 0 kts 189°
2026-05-08 04:57 26.52996 -81.75364 44 ft 5 kts 189°
2026-05-08 04:57 26.52964 -81.75369 44 ft 5 kts 188°
2026-05-08 04:57 26.52944 -81.75393 44 ft 5 kts 263°
2026-05-08 04:58 26.52948 -81.75430 44 ft 5 kts 279°
2026-05-08 04:58 26.52951 -81.75452 44 ft 1 kts 279°